Regional Weather Roundup
Issued by NWS

Home | Current Version | Previous Version | Text Only | Print | Product List | Glossary On
Versions: 1 2 3 4 5 6 7 8 9 10 11 12 13 14 15 16 17 18 19 20 21 22 23 24 25 26 27
000
ASUS45 KBOU 241306
RWRCO

WEATHER ROUNDUP FOR COLORADO
NATIONAL WEATHER SERVICE DENVER/BOULDER CO
700 AM MDT THU APR 24 2014

NOTE: "FAIR" INDICATES FEW OR NO CLOUDS BELOW 12000 FEET WITH NO
SIGNIFICANT WEATHER AND/OR OBSTRUCTIONS TO VISIBILITY.

COZ001>005-013-030-031-241400-
...NORTHWEST COLORADO...

CITY           SKY/WX    TMP DP  RH WIND       PRES   REMARKS
CRAIG          CLEAR     19  16  88 CALM      30.14R
HAYDEN         CLEAR     25  16  68 E6        30.14R WCI  18
MEEKER         CLEAR     26  15  63 E3        30.15R
MOUNT WERNER   CLEAR     19  10  68 W17       30.10R WCI   4
STEAMBOAT SPGS CLEAR     25  15  66 CALM      30.13R
WALDEN         CLEAR     27  12  54 S17G25    30.05R WCI  14
$$

COZ006>008-011-241400-
...WEST CENTRAL VALLEYS...

CITY           SKY/WX    TMP DP  RH WIND       PRES   REMARKS
GRAND JUNCTION CLEAR     31  14  49 CALM      30.13R
MONTROSE       CLEAR     31  15  52 SE10      30.17R WCI  22
EAGLE          CLEAR     23  16  74 CALM      30.19R
RIFLE          CLEAR     26  16  65 CALM      30.16R
DELTA          NOT AVBL
NUCLA          NOT AVBL
$$

COZ017>023-064>068-241400-
...SOUTHWEST COLORADO...

CITY           SKY/WX    TMP DP  RH WIND       PRES   REMARKS
DURANGO        PTCLDY    24   8  50 E3        30.12R
CORTEZ         CLEAR     24  13  62 NE9       30.13R WCI  14
PAGOSA SPRINGS PTCLDY    24  12  60 CALM      30.14R
TELLURIDE      PTCLDY    27  12  54 E3        30.15R
WOLF CREEK PAS CLEAR     19   1  45 SW13      30.15R WCI   7
$$

COZ009-010-012-014-032>034-037-058>063-241400-
...CENTRAL COLORADO...

CITY           SKY/WX    TMP DP  RH WIND       PRES   REMARKS
ASPEN          PTCLDY    24  14  65 SW5       30.13R WCI  18
BUENA VISTA    CLEAR     33   6  31 NW14G20   30.05R WCI  23
COPPER MTN     PTCLDY    14   5  67 W7        30.10S WCI   4
BERTHOUD PASS  FAIR       7  -4  61 NW33G43   30.02R WCI -18
COTTONWOOD PAS CLEAR     32  -9  16 W7G30     30.06R WCI  26
GUNNISON       PTCLDY    21  10  63 N5        30.17R WCI  15
KREMMLING      CLEAR     27  14  59 CALM      30.15R
LEADVILLE      CLEAR     17   6  62 N10       30.11R WCI   5
MONARCH PASS   CLEAR     12   5  73 W45G51    30.16R WCI -13
SALIDA         CLEAR     31  11  43 W5        30.14R WCI  26
SUNLIGHT       CLEAR     21  10  63 CALM      30.15R
WILKERSON PASS PTCLDY    19   3  49 W7        30.08R WCI  10
$$

COZ069>075-241400-
...SAN LUIS VALLEY/SANGRE DE CRISTO MOUNTAINS...

CITY           SKY/WX    TMP DP  RH WIND       PRES   REMARKS
ALAMOSA        CLEAR     30  11  45 W6        30.10R WCI  24
LA VETA PASS   PTCLDY    23   7  50 SW14G24   30.09R WCI  11
SAGUACHE       PTCLDY    28   7  40 N10       30.11R WCI  19
$$

COZ035-036-038>040-241400-
...NORTHERN COLORADO FRONT RANGE...

CITY           SKY/WX    TMP DP  RH WIND       PRES   REMARKS
DENVER INTL AP CLEAR     37  19  48 W7        30.01R
DMNS CITY PARK   N/A     39  21  48 SW3       30.03R
AURORA         PTCLDY    34  23  64 S5        30.03R WCI  30
FRONT RANGE AP NOT AVBL
ERIE MUNI ARPT CLEAR     32  28  86 SW3       30.01R
BOULDER MUN AP CLEAR     37  28  70 SW5       30.01R
CENTENNIAL     CLEAR     36  19  50 CALM      30.02R
BROOMFIELD     NOT AVBL
FORT COLLINS   CLEAR     36  18  48 W3        30.01S
LONGMONT       NOT AVBL
$$

COZ041-046-047-076>085-087-088-241400-
...PIKES PEAK/PALMER DIVIDE AND SOUTHERN FOOTHILLS...

CITY           SKY/WX    TMP DP  RH WIND       PRES   REMARKS
COLO. SPRINGS  PTCLDY    35  28  75 W7        30.05R WCI  29
A. F. ACADEMY  CLEAR     29  28  94 NW2       30.04R
ELLICOTT       NOT AVBL
FALCON         CLEAR     32  21  64 NW6       30.05R WCI  26
FORT CARSON    CLEAR     32  29  88 SW3       30.04R
LIMON          CLEAR     32  23  69 W7        30.01R WCI  26
MONUMENT HILL  CLEAR     28  19  69 CALM      30.03R
TRINIDAD       CLEAR     37  32  82 W10       30.06R
$$

COZ042>045-048>051-090-091-241400-
...NORTHEAST COLORADO...

CITY           SKY/WX    TMP DP  RH WIND       PRES   REMARKS
GREELEY ARPT   CLEAR     39  16  38 N14       30.00R
AKRON          SUNNY     37  19  48 NW13      29.98R
BURLINGTON     MOSUNNY   41  19  41 NW14      29.96R
WRAY           PTSUNNY   43  24  46 NW15      29.94R
STERLING       NOT AVBL
HOLYOKE        NOT AVBL
FORT MORGAN    NOT AVBL
$$

COZ086-089-092>099-241400-
...SOUTHEAST COLORADO...

CITY           SKY/WX    TMP DP  RH WIND       PRES   REMARKS
PUEBLO         CLEAR     37  32  82 NW5       30.04R
LA JUNTA       CLEAR     43  37  79 W12       30.02R
LAMAR          SUNNY     43  30  60 NW7       29.96R
SPRINGFIELD      N/A     40  35  83 NW18      29.98R
$$



USA.gov is the U.S. government's official web portal to all federal, state and local government web resources and services.